This is the latest recevied weather packets stored in our database for station/object IZ7EXI-13. If no packets are shown the sender has not sent any weather packets the latest 10 day(s).
| Time | Temp. | Humidity | Pressure | Rain* | Wind** | Luminosity | Snow |
|---|---|---|---|---|---|---|---|
| 1788195082 | 32.78° C | 66% | 1016 hPa | - | - | - | - |
| 1788194182 | 32.78° C | 65% | 1016 hPa | - | - | - | - |
| 1788193282 | 32.78° C | 67% | 1015.9 hPa | - | - | - | - |
| 1788192382 | 31.11° C | 70% | 1016 hPa | - | - | - | - |
| 1788191481 | 31.11° C | 70% | 1015.7 hPa | - | - | - | - |
| 1788190581 | 31.11° C | 70% | 1015.8 hPa | - | - | - | - |
| 1788189681 | 31.67° C | 68% | 1015.9 hPa | - | - | - | - |
| 1788188819 | 32.22° C | 66% | 1015.8 hPa | - | - | - | - |
| 1788188781 | 32.22° C | 66% | 1015.8 hPa | - | - | - | - |
| 1788187881 | 32.78° C | 66% | 1016 hPa | - | - | - | - |
| 1788187011 | 31.67° C | 69% | 1016 hPa | - | - | - | - |
| 1788186980 | 31.67° C | 69% | 1016 hPa | - | - | - | - |
| 1788186114 | 31.67° C | 69% | 1016.1 hPa | - | - | - | - |
| 1788186080 | 31.67° C | 69% | 1016.1 hPa | - | - | - | - |
| 1788185212 | 31.67° C | 67% | 1015.6 hPa | - | - | - | - |
| 1788185180 | 31.67° C | 67% | 1015.6 hPa | - | - | - | - |
| 1788184280 | 32.22° C | 65% | 1015.8 hPa | - | - | - | - |
| 1788183405 | 32.78° C | 64% | 1016 hPa | - | - | - | - |
| 1788183380 | 32.78° C | 64% | 1016 hPa | - | - | - | - |
| 1788182479 | 32.78° C | 64% | 1016 hPa | - | - | - | - |
| 1788181615 | 32.78° C | 64% | 1015.9 hPa | - | - | - | - |
| 1788181579 | 32.78° C | 64% | 1015.9 hPa | - | - | - | - |
| 1788180679 | 32.22° C | 64% | 1016.2 hPa | - | - | - | - |
| 1788179779 | 32.22° C | 63% | 1016.3 hPa | - | - | - | - |
| 1788178912 | 33.33° C | 61% | 1016.4 hPa | - | - | - | - |
* Rain since midnight (hover to see other rain measurements)
** Current wind speed in m/s (hover to see current wind gust speed)